Simultaneous Nadir Overpasses (SNOs) Predictions

Prediction of SNOs between GOES-17 and METOP-C Satellite Orbit:

Table of predicted SNOs for the next 14.0 days since TLE Epoch: 6/10/2023
Index Date Time (GOES-17) GOES-17 Lat,Lon METOP-C Lat,Lon Distance(km) Time Diff (sec)
1 06/10/2023 16:22:33 -0.01,-104.73 -0.43,-102.84 215.50 80
2 06/12/2023 04:41:32 0.01,-104.69 -0.61,-107.43 312.37 80
3 06/13/2023 04:18:12 0.01,-104.69 0.52,-102.44 257.27 80
4 06/14/2023 16:37:00 -0.01,-104.74 0.51,-106.99 256.73 80
5 06/15/2023 16:19:00 -0.01,-104.74 -0.62,-101.99 313.13 80
6 06/17/2023 04:37:59 0.01,-104.70 -0.40,-106.59 214.53 80
7 06/18/2023 04:14:38 0.01,-104.70 0.73,-101.59 355.04 80
8 06/19/2023 16:33:27 -0.01,-104.74 0.30,-106.14 159.31 80
9 06/20/2023 16:15:26 -0.01,-104.74 -0.84,-101.14 410.65 80
10 06/22/2023 04:34:25 0.01,-104.71 -0.22,-105.73 116.29 80
11 06/23/2023 04:11:04 0.01,-104.71 0.92,-100.74 453.60 80
